Station: Hindmarsh Island  

  Atmospheric Gas Attenuation - ITU Rec 676-11   ----------------- dB/100km -----------------
Date Time Temp RH % AH g/m3 Dew Point Wind Direction Speed kph Gust kph Barometer mB Rainfall Since 9am 24GHz 47GHz 76GHz 122GHz 134GHz 241GHz
01/09 17:50 17.2 72 10.54 12.1 22 28 1014.2 0.6 23.6 28.1 45.9 120.7 119.6 413.1
01/09 17:40 17.3 70 10.31 11.8 20 32 1014.2 0.6 23.1 27.7 44.9 118.1 116.4 401.8
01/09 17:30 17.2 71 10.4 11.9 15 20 1014 0.6 23.3 27.8 45.3 119.2 117.7 406.5
01/09 17:20 17.2 70 10.25 11.7 15 20 1013.8 0.6 22.9 27.6 44.7 117.5 115.7 399.4
01/09 17:10 17.2 70 10.25 11.7 15 24 1013.6 0.6 22.9 27.6 44.7 117.5 115.7 399.3
01/09 17:00 17.1 70 10.19 11.6 20 32 1013.2 0.6 22.8 27.5 44.5 116.9 115.0 396.9
01/09 16:50 17.1 72 10.48 12 24 37 1012.9 0.6 23.4 28.0 45.6 120.1 118.8 410.4
01/09 16:40 16.9 73 10.5 12 33 46 1012.7 0.6 23.5 28.0 45.8 120.6 119.4 412.3
01/09 16:30 16.4 75 10.47 12 30 48 1011.8 0.6 23.5 28.1 45.9 120.9 119.7 413.3
01/09 16:20 15.9 78 10.56 12.1 32 48 1011.7 0.6 23.7 28.4 46.6 122.7 121.7 420.2
01/09 16:10 15.6 81 10.77 12.4 33 48 1011.6 0.6 24.1 28.9 47.7 125.5 125.1 432.0
01/09 16:00 15.5 82 10.84 12.4 41 57 1012.5 0.6 24.3 29.1 48.1 126.6 126.3 436.2
01/09 15:50 15.5 82 10.84 12.4 43 59 1011.9 0.6 24.3 29.0 48.0 126.5 126.2 436.0
01/09 15:40 15.5 82 10.84 12.4 41 63 1011.9 0.6 24.3 29.0 48.0 126.5 126.2 436.0
01/09 15:30 15.8 80 10.77 12.4 32 65 1012.4 0.2 24.1 28.8 47.6 125.3 124.8 431.1
01/09 15:20 15.6 80 10.64 12.2 32 48 1012.9 0.2 23.9 28.7 47.2 124.2 123.4 426.1
01/09 15:10 16.2 75 10.34 11.8 28 44 1013.4 0.2 23.2 28.0 45.6 120.0 118.4 408.7
01/09 15:00 16.9 72 10.36 11.8 26 37 1014.3 0 23.2 27.9 45.3 119.2 117.7 406.2
01/09 14:50 17.5 66 9.84 11.1 32 46 1014.3 0 22.0 26.8 42.9 112.7 109.9 379.1
01/09 14:40 18 62 9.52 10.6 26 43 1014.3 0 21.3 26.2 41.4 108.6 105.0 362.1
01/09 14:30 19.1 56 9.18 10.1 24 43 1014.7 0 20.6 25.3 39.5 103.7 99.3 342.2
01/09 14:20 19.7 53 9 9.9 30 50 1014.7 0 20.2 24.9 38.5 101.1 96.3 331.8
01/09 14:10 20.2 48 8.39 8.8 33 59 1014.3 0 18.8 23.8 36.0 94.4 88.2 303.7
01/09 14:00 20.4 46 8.14 8.4 35 50 1014.5 0 18.3 23.4 35.0 91.8 85.0 292.5
01/09 13:50 20.9 44 8.01 8.2 32 50 1014.4 0 18.0 23.1 34.4 90.0 83.0 285.3
01/09 13:40 21.4 43 8.06 8.3 39 54 1014.2 0 18.1 23.1 34.3 89.9 83.0 285.6
01/09 13:30 21.8 41 7.87 8 37 52 1014.2 0 17.7 22.7 33.5 87.7 80.4 276.5
01/09 13:20 22.1 40 7.81 7.9 39 57 1014.1 0 17.5 22.5 33.1 86.8 79.4 273.0
01/09 13:10 21.9 40 7.72 7.7 39 56 1014.2 0 17.4 22.4 32.9 86.2 78.6 270.1
01/09 13:00 22 39 7.57 7.4 43 56 1014.2 0 17.0 22.2 32.4 84.7 76.8 263.7
01/09 12:50 22 39 7.57 7.4 39 56 1014.2 0 17.0 22.2 32.4 84.7 76.8 263.7
01/09 12:40 22.1 37 7.22 6.7 43 63 1014.2 0 16.3 21.7 31.1 81.3 72.7 249.5
01/09 12:30 21.9 38 7.33 7 37 54 1014.3 0 16.5 21.9 31.6 82.6 74.2 254.5
01/09 12:20 22 38 7.37 7 39 54 1014.3 0 16.6 21.9 31.7 82.8 74.5 255.8
01/09 12:10 21.9 37 7.14 6.6 35 57 1014.4 0 16.1 21.6 30.9 80.8 72.0 247.0
01/09 12:00 22.2 38 7.46 7.2 35 57 1014.8 0 16.8 22.0 31.9 83.5 75.4 258.8
01/09 11:50 22.3 36 7.11 6.5 41 65 1014.9 0 16.1 21.5 30.7 80.2 71.4 244.7
01/09 11:40 22.7 35 7.07 6.5 43 67 1014.9 0 16.0 21.4 30.4 79.5 70.6 242.0
01/09 11:30 22.3 37 7.31 6.9 39 57 1014.9 0 16.5 21.8 31.4 82.0 73.6 252.6
01/09 11:20 22.1 37 7.22 6.7 44 63 1015.3 0 16.3 21.7 31.2 81.4 72.8 249.7
01/09 11:10 21.7 37 7.06 6.4 43 65 1015.2 0 16.0 21.6 30.8 80.4 71.3 244.6
01/09 11:00 21.3 38 7.08 6.4 44 63 1015.3 0 16.0 21.7 31.0 81.0 71.9 246.6
01/09 10:50 21.3 38 7.08 6.4 44 69 1015 0 16.0 21.7 31.0 80.9 71.9 246.6
01/09 10:40 20.5 40 7.12 6.5 44 59 1014.9 0 16.2 22.0 31.4 82.1 73.1 250.6
01/09 10:30 20.5 40 7.12 6.5 43 65 1014.8 0 16.2 22.0 31.4 82.1 73.1 250.5
01/09 10:20 20.4 41 7.25 6.7 43 67 1014.7 0 16.4 22.2 31.9 83.4 74.7 256.1
01/09 10:10 20.2 42 7.34 6.9 44 65 1014.7 0 16.6 22.3 32.3 84.4 75.9 260.3
01/09 10:00 20 43 7.43 7.1 44 61 1014.8 0 16.8 22.5 32.7 85.5 77.1 264.7
01/09 09:50 19.9 44 7.56 7.3 41 63 1015.1 0 17.1 22.7 33.2 86.9 78.8 270.4
01/09 09:40 19.8 44 7.51 7.2 37 59 1015.4 0 17.0 22.7 33.1 86.5 78.3 268.8
01/09 09:30 19.7 45 7.64 7.4 33 54 1015.7 0 17.3 22.9 33.6 87.9 79.9 274.5
01/09 09:20 19.5 46 7.72 7.6 28 41 1016 0 17.5 23.1 34.0 88.9 81.1 278.6
01/09 09:10 18.6 51 8.12 8.3 17 24 1016.2 0 18.3 23.9 35.8 93.8 86.9 298.7
01/09 09:00 18.7 51 8.16 8.4 17 24 1016.4 0 18.4 24.0 35.9 94.1 87.3 300.1
01/09 08:50 18.2 53 8.24 8.5 13 19 1016.8 0 18.6 24.2 36.5 95.6 88.8 305.5
01/09 08:40 17.8 55 8.35 8.6 11 17 1016.8 0 18.9 24.5 37.1 97.1 90.6 311.8
01/09 08:30 17 58 8.39 8.7 13 20 1016.9 0 19.0 24.8 37.6 98.5 92.1 316.7
01/09 08:20 16.5 57 8 8 17 22 1016.8 0 18.2 24.3 36.3 95.2 87.8 301.5
01/09 08:10 15.9 59 7.99 7.9 19 28 1016.9 0 18.2 24.5 36.6 95.8 88.3 303.4
01/09 08:00 15.1 61 7.87 7.6 19 24 1016.8 0 18.0 24.5 36.5 95.5 87.7 301.1
01/09 07:50 14.6 63 7.88 7.6 19 26 1016.8 0 18.0 24.7 36.7 96.2 88.4 303.5
01/09 07:40 14.2 66 8.06 7.9 20 24 1016.8 0 18.4 25.0 37.6 98.6 91.1 313.1
01/09 07:30 13.2 68 7.81 7.4 19 26 1016.7 0 17.9 24.9 37.1 97.2 89.1 305.7
01/09 07:20 13.2 68 7.81 7.4 19 24 1016.8 0 17.9 24.9 37.1 97.2 89.1 305.7
01/09 07:10 13.2 67 7.69 7.2 17 24 1017 0 17.7 24.7 36.6 96.0 87.5 300.3
01/09 07:00 12.5 69 7.59 7 17 22 1017.2 0 17.5 24.8 36.6 95.8 87.0 298.5
01/09 06:50 12.8 66 7.39 6.6 17 22 1017.3 0 17.0 24.4 35.7 93.3 84.1 288.3
01/09 06:40 12.4 69 7.54 6.9 19 22 1017.4 0 17.4 24.7 36.4 95.4 86.5 296.6
01/09 06:30 12.7 67 7.46 6.7 19 20 1017.5 0 17.2 24.5 36.0 94.2 85.1 291.9
01/09 06:20 13.4 66 7.67 7.2 19 26 1017.5 0 17.6 24.7 36.5 95.6 87.1 298.8
01/09 06:10 14.4 61 7.54 7 20 26 1017.4 0 17.3 24.2 35.5 93.0 84.3 289.2
01/09 06:00 14.2 61 7.45 6.8 20 26 1017.5 0 17.1 24.1 35.3 92.3 83.4 286.0
01/09 05:50 13.5 63 7.37 6.6 22 30 1017.5 0 17.0 24.2 35.3 92.3 83.1 284.9
01/09 05:40 12.7 68 7.57 7 22 30 1017.5 0 17.4 24.7 36.4 95.4 86.6 296.9
01/09 05:30 10.9 76 7.56 6.8 20 28 1017.6 0 17.5 25.2 37.2 97.5 88.5 303.3
01/09 05:20 11 79 7.91 7.5 24 28 1017.7 0 18.2 25.7 38.6 101.1 93.0 319.3
01/09 05:10 10.5 79 7.66 7 24 28 1017.8 0 17.7 25.5 37.8 99.1 90.3 309.6
01/09 05:00 10.3 82 7.85 7.4 20 26 1018 0 18.1 25.9 38.7 101.4 93.1 319.4
01/09 04:50 10.4 81 7.81 7.3 20 26 1018.2 0 18.1 25.8 38.5 100.9 92.4 317.1
01/09 04:40 10.5 80 7.76 7.2 20 24 1018.2 0 17.9 25.7 38.2 100.2 91.6 314.4
01/09 04:30 10.6 79 7.71 7.1 19 20 1018.3 0 17.8 25.6 38.0 99.5 90.9 311.6
01/09 04:20 10.5 78 7.57 6.8 17 20 1018.3 0 17.5 25.4 37.5 98.1 89.1 305.5
01/09 04:10 10.5 78 7.57 6.8 19 22 1018.4 0 17.5 25.4 37.5 98.1 89.1 305.5
01/09 04:00 10.3 79 7.57 6.8 17 20 1018.5 0 17.5 25.4 37.6 98.4 89.4 306.3
01/09 03:50 10.4 78 7.52 6.7 17 19 1018.6 0 17.4 25.3 37.3 97.7 88.6 303.6
01/09 03:40 10.5 77 7.47 6.6 17 19 1018.7 0 17.3 25.2 37.1 97.1 87.8 300.9
01/09 03:30 10.4 79 7.62 6.9 17 20 1018.8 0 17.6 25.5 37.7 98.8 89.9 308.3
01/09 03:20 10.1 79 7.47 6.6 15 17 1019.1 0 17.3 25.3 37.3 97.6 88.3 302.5
01/09 03:10 10.1 78 7.38 6.4 15 17 1019.2 0 17.1 25.2 36.9 96.7 87.1 298.4
01/09 03:00 10.3 79 7.57 6.8 15 17 1019.3 0 17.5 25.5 37.6 98.5 89.4 306.5
01/09 02:50 10.5 79 7.66 7 17 19 1019.5 0 17.7 25.6 37.9 99.2 90.4 310.0
01/09 02:40 10.4 77 7.42 6.5 15 17 1019.7 0 17.2 25.2 37.0 96.8 87.3 299.2
01/09 02:30 10.7 74 7.27 6.3 15 17 1019.9 0 16.9 24.9 36.2 94.8 85.0 291.2
01/09 02:20 11.1 74 7.46 6.6 15 19 1020 0 17.3 25.1 36.8 96.4 87.1 298.5
01/09 02:10 11.5 74 7.64 7 15 19 1020.2 0 17.6 25.3 37.4 97.8 89.0 305.3
01/09 02:00 11.5 72 7.44 6.6 17 20 1020.4 0 17.2 24.9 36.6 95.7 86.4 296.1
01/09 01:50 11.3 73 7.45 6.6 15 19 1020.5 0 17.2 25.0 36.7 96.1 86.8 297.4
01/09 01:40 11.5 72 7.44 6.6 17 20 1020.7 0 17.2 25.0 36.6 95.7 86.4 296.2
01/09 01:30 11.8 75 7.89 7.5 17 24 1020.9 0 18.2 25.6 38.3 100.2 92.1 315.9
01/09 01:20 11.4 76 7.8 7.3 17 20 1020.9 0 18.0 25.6 38.1 99.7 91.3 313.3

Last Refresh: 01-Sep-2026 18:05:44

Bureau of Meteorology